TimeEDT,TemperatureF,Dew PointF,Humidity,Sea Level PressureIn,VisibilityMPH,Wind Direction,Wind SpeedMPH,Gust SpeedMPH,PrecipitationIn,Events,Conditions,WindDirDegrees,DateUTC
12:53 AM,44.1,28.9,55,30.10,10.0,NNW,9.2,-,N/A,,Overcast,330,2013-03-29 04:53:00
1:53 AM,44.1,28.9,55,30.10,10.0,NNW,6.9,-,N/A,,Overcast,330,2013-03-29 05:53:00
2:53 AM,44.1,28.9,55,30.10,10.0,NW,9.2,-,N/A,,Overcast,320,2013-03-29 06:53:00
3:53 AM,43.0,28.0,56,30.10,10.0,NW,9.2,-,N/A,,Overcast,320,2013-03-29 07:53:00
4:53 AM,42.1,28.0,58,30.11,10.0,NW,5.8,-,N/A,,Clear,320,2013-03-29 08:53:00
5:53 AM,41.0,28.0,60,30.11,10.0,NW,6.9,-,N/A,,Overcast,320,2013-03-29 09:53:00
6:53 AM,39.9,27.0,60,30.12,10.0,NNW,6.9,-,N/A,,Clear,330,2013-03-29 10:53:00
7:53 AM,42.1,27.0,55,30.13,10.0,NW,5.8,-,N/A,,Clear,320,2013-03-29 11:53:00
8:53 AM,45.0,28.0,52,30.13,10.0,NNW,8.1,-,N/A,,Clear,330,2013-03-29 12:53:00
9:53 AM,48.0,28.0,46,30.13,10.0,NW,6.9,-,N/A,,Clear,320,2013-03-29 13:53:00
10:53 AM,50.0,28.0,43,30.13,10.0,NNW,6.9,-,N/A,,Clear,330,2013-03-29 14:53:00
11:53 AM,52.0,27.0,38,30.12,10.0,North,6.9,-,N/A,,Clear,360,2013-03-29 15:53:00
12:53 PM,52.0,25.0,35,30.10,10.0,West,5.8,19.6,N/A,,Scattered Clouds,280,2013-03-29 16:53:00
1:53 PM,54.0,25.0,33,30.08,10.0,West,9.2,-,N/A,,Overcast,280,2013-03-29 17:53:00
2:53 PM,54.0,24.1,31,30.06,10.0,West,12.7,-,N/A,,Scattered Clouds,280,2013-03-29 18:53:00
3:53 PM,53.1,23.0,31,30.04,10.0,WNW,12.7,18.4,N/A,,Overcast,300,2013-03-29 19:53:00
4:53 PM,53.1,24.1,32,30.04,10.0,NW,6.9,16.1,N/A,,Overcast,310,2013-03-29 20:53:00
5:53 PM,52.0,23.0,32,30.06,10.0,NNW,11.5,-,N/A,,Overcast,330,2013-03-29 21:53:00
6:53 PM,50.0,25.0,38,30.07,10.0,NW,10.4,19.6,N/A,,Mostly Cloudy,320,2013-03-29 22:53:00
7:53 PM,48.0,26.1,42,30.08,10.0,NW,6.9,-,N/A,,Clear,320,2013-03-29 23:53:00
8:53 PM,46.0,25.0,44,30.10,10.0,NW,11.5,-,N/A,,Clear,320,2013-03-30 00:53:00
9:53 PM,45.0,26.1,48,30.12,10.0,NW,5.8,-,N/A,,Clear,320,2013-03-30 01:53:00
10:53 PM,44.1,27.0,51,30.12,10.0,NW,4.6,-,N/A,,Clear,320,2013-03-30 02:53:00
11:53 PM,44.1,26.1,49,30.12,10.0,NW,9.2,-,N/A,,Clear,320,2013-03-30 03:53:00